Bibliothèque

Titres (23)
Titre Album Durée Date
Kinetic
3:55 20 fév. 2014, 22h03m
Kinetic 3:55 25 sept. 2013, 23h44m
Kinetic 3:55 15 avr. 2013, 17h44m
Kinetic 3:55 28 mars 2013, 17h47m
Kinetic 3:55 3 jan. 2013, 18h33m
Kinetic 3:55 1 nov. 2012, 23h41m
Kinetic 3:55 30 oct. 2012, 16h43m
Kinetic 3:55 22 oct. 2012, 19h50m
Kinetic 3:55 10 oct. 2012, 15h55m
Kinetic 3:55 23 jui. 2012, 22h00m
Kinetic 3:55 3 juin 2012, 18h24m
Kinetic 3:55 12 fév. 2012, 20h03m
Kinetic 3:55 5 jan. 2012, 20h39m
Kinetic 3:55 1 déc. 2011, 20h16m
Kinetic 3:55 21 nov. 2011, 16h33m
Kinetic 3:55 22 oct. 2011, 5h16m
Kinetic 3:55 30 août 2011, 20h52m
Kinetic 3:55 10 août 2011, 20h56m
Kinetic 3:55 2 juin 2011, 21h50m
Kinetic 3:55 17 mars 2011, 21h05m
Kinetic 3:55 13 jan. 2011, 17h05m
Kinetic 3:55 3 jan. 2011, 23h30m
Kinetic 3:55 20 août 2010, 21h30m